Кировск

Азербайджан     38˚48′00″N   48˚43′01″E
темп.,
°C
ветер,
м/с
пор.,
м/с
влажн.,
%
обл.,
%
осадки,
мм/ч
давл.,
гПа
погр.,
м
6 декабря, вс
вс623:00+7˚с4696100 8.4 1026348
02:00+6˚ссз4696100 4.5 1026325
05:00+6˚ссз4595100 7.6 1025319
08:00+5˚ссз3594100 2.1 1026363
11:00+5˚ссз3690100 3.9 1026506
14:00+5˚ссз4593100 1.3 1026376
17:00+5˚ссз4692100 2.3 1026434
20:00+4˚ссз4692100 2.4 1028511
7 декабря, пн
пн723:00+3˚сз4596100 5.4 1028357
02:00+3˚сз4696100 2.6 1029352
05:00+2˚сз4696100 4.6 1030359
08:00+2˚сз4696100 1.3 1031318
11:00+2˚сз4694100 1.8 1032366
14:00+4˚ссз4688100 0.1 1031473
17:00+4˚ссз348375 0.1 1030578
20:00+2˚зсз22908 0.0 103164
8 декабря, вт
вт823:00+2˚зсз12854 0.0 103127
02:00+1˚зсз12830 0.0 103025
05:00+1˚зсз128328 0.0 103024
08:00+1˚зюз11810 0.0 103021
11:00+4˚с01730 0.0 1030187
14:00+6˚всв21730 0.0 1028541
17:00+5˚вюв128330 0.0 1027403
20:00+5˚зюз118985 0.0 102849
9 декабря, ср
ср923:00+4˚з118663 0.0 102825
02:00+3˚сз22870 0.0 102852
05:00+3˚сз23860 0.0 102752
08:00+3˚сз228569 0.0 102738
11:00+5˚ссз237984 0.0 1028225
14:00+7˚с3373100 0.0 1026479
17:00+7˚ссв2277100 0.0 1025489
20:00+6˚сз1283100 0.0 102679
10 декабря, чт
чт1023:00+5˚сз2281100 0.0 1027102
02:00+5˚сз2380100 0.0 1027117
05:00+5˚сз2377100 0.0 1028125
08:00+5˚ссз2574100 0.1 1029180
11:00+5˚сз3484100 0.9 1030235
14:00+6˚ссз4791100 1.1 1030388
17:00+5˚ссз3593100 1.6 1029330
20:00+5˚сз3492100 0.1 1030231